Home   Weather   Daneborg   Past weeks
Flag for Greenland

Past Weather in Daneborg, Greenland — Yesterday and Last 2 Weeks

Now
10 °F

Frigid.


Feels Like: -10 °F
Forecast: N/A
Wind: 22 mph from North

Location: Daneborg

Current Time: Dec 7, 2019 at 5:16:19 pm

Latest Report: Dec 7, 2019 at 4:00 pm


Visibility: N/A

Pressure: 29.95 "Hg

Humidity: 54%

Dew Point: -3 °F

Location of DaneborgLocation

Past Weather in Daneborg — Graph

°F

Daneborg Temperature Yesterday

Maximum temperature yesterday: 22 °F (at 2:00 am)
Minimum temperature yesterday: 20 °F (at 5:00 am)
Average temperature yesterday: 21 °F

High & Low Weather Summary for the Past Weeks

 TemperatureHumidityPressure
High36 °F (Nov 26, 11:00 am)96% (Dec 4, 3:00 pm)30.32 "Hg (Dec 4, 3:00 pm)
Low-10 °F (Dec 1, 2:00 am)26% (Nov 26, 2:00 pm)28.82 "Hg (Dec 4, 8:00 am)
Average8 °F71%29.75 "Hg
* Reported Nov 22 3:00 pm — Dec 7 3:00 pm, Daneborg. Weather by CustomWeather, © 2019

Note: Actual official high and low records may vary slightly from our data, if they occured in-between our weather recording intervals... More about our weather records

Daneborg Weather History for the Previous 24 Hours

Scroll right to see more
 ConditionsComfort  
Time TempWeatherWind HumidityBarometerVisibility
3:00 pm
Sat, Dec 7
8 °FFrigid.22 mph57%29.96 "HgN/A
2:00 pm8 °FFrigid.23 mph64%29.96 "HgN/A
1:00 pm10 °FFrigid.24 mph64%29.95 "HgN/A
12:00 pm8 °FFrigid.26 mph75%29.96 "HgN/A
11:00 am9 °FFrigid.33 mph78%29.95 "HgN/A
10:00 am10 °FFrigid.38 mph80%29.93 "HgN/A
9:00 am10 °FCold.38 mph83%29.92 "HgN/A
8:00 am12 °FCold.37 mph83%29.93 "HgN/A
7:00 am13 °FCold.35 mph85%29.89 "HgN/A
6:00 am14 °FCold.36 mph87%29.87 "HgN/A
5:00 am16 °FCold.32 mph88%29.85 "HgN/A
4:00 am17 °FCold.36 mph88%29.83 "HgN/A
3:00 am18 °FCold.23 mph91%29.80 "HgN/A
2:00 am20 °FCold.20 mph88%29.78 "HgN/A
1:00 am20 °FCold.23 mph87%29.76 "HgN/A
12:00 am21 °FCold.25 mph83%29.74 "HgN/A
11:00 pm
Fri, Dec 6
20 °FCold.20 mph84%29.73 "HgN/A
10:00 pm21 °FCold.10 mph89%29.72 "HgN/A
9:00 pm20 °FCold.18 mph89%29.70 "HgN/A
8:00 pm21 °FCold.25 mph85%29.67 "HgN/A
7:00 pm21 °FCold.22 mph89%29.64 "HgN/A
6:00 pm21 °FCold.25 mph91%29.61 "HgN/A
5:00 pm21 °FCold.24 mph90%29.58 "HgN/A
Weather by CustomWeather, © 2019

See weather overview

Advertising